Hlavní strana
METAR-TAF:

METAR-TAF

Letiště :

Providencia Island, Kolumbie

zeměpisná šířka: 13-22N, zeměpisná délka: 081-21W, výška: 6 m

Aktuální stav počasí

Zpráva byla vytvořena před 50 minutami, v 17:00 UTC
vítr z různých směrů 6 kt
Teplota 29°C
Vlhkost vzduchu 66%
Tlak 1017 hPa
Viditelnost 10 km a více
Skoro jasno ve výšce 1800 ft

METAR: SKPV 181700Z VRB06KT 9999 FEW018 29/22 A3002

Čas: 12:50 (17:50 UTC)


TAF: chybějící

Stav a předpovědi počasí z více než 4 000 letišť (zprávy METAR a TAF).

Červené a žluté tečky na mapě představují dostupné meteorologické stanice.

Když kurzor umístíte na tečku, zobrazí se název stanice.

Pak kliknutím zobrazíte stav a předpověď počasí.

Chcete-li změnit mapu, kliknutím na zelené tlačítko se znaménkem +mapu přiblížíte, kliknutím na zelené tlačítko se znaménkem – mapu oddálíte a kliknutím na zelené šipky přejdete na sousední mapy.


METAR-TAF: